Location: Broekland
(52.3610°N, 6.2005°E)
Time: 11:27:18
(UTC+00:00)

ARIANE 6 FM1 Upper Stage - Pass Details

Date: 19 May 2025
Orbit: 530 x 611 km, 62.0° (Epoch: 23 June)

Event Time Altitude Azimuth Distance (km) Brightness Sun altitude
Rises 21:57:51 0° 253° (WSW) 2,670 6.2 -14.8°
Reaches altitude 10° 22:00:08 10° 261° (W) 1,785 5.4 -15.0°
Maximum altitude 22:03:55 40° 331° (NNW) 810 4.1 -15.2°
Drops below altitude 10° 22:07:46 10° 42° (NE) 1,816 5.6 -15.4°
Sets 22:10:07 0° 50° (NE) 2,723 6.4 -15.5°
